Location: Plainartige
(45.6866°N, 1.7993°E)
Time: 03:47:13
(UTC+00:00)

deb r/b Ablestar - Pass Details

Date: 28 September 2021
Orbit: 844 x 997 km, 67.7° (Epoch: 16 October)

Event Time Altitude Azimuth Distance (km) Brightness Sun altitude
Rises 18:50:33 0° 334° (NNW) 3,412 ? -13.4°
Reaches altitude 10° 18:53:48 10° 352° (N) 2,476 ? -13.9°
Maximum altitude 18:57:42 19° 36° (NE) 1,947 ? -14.6°
Enters shadow 19:00:03 15° 65° (ENE) 2,161 ? -15.0°
